This is the latest recevied weather packets stored in our database for station/object SP6PWT-13. If no packets are shown the sender has not sent any weather packets the latest 10 day(s).
| Time | Temp. | Humidity | Pressure | Rain* | Wind** | Luminosity | Snow |
|---|---|---|---|---|---|---|---|
| 1777822420 | 26.11° C | 25% | 997 hPa | 0 mm | - | 200 W/m² | - |
| 1777822119 | 26.11° C | 25% | 997.1 hPa | 0 mm | - | 231 W/m² | - |
| 1777821819 | 26.11° C | 25% | 997 hPa | 0 mm | - | 243 W/m² | - |
| 1777821519 | 26.11° C | 25% | 997.2 hPa | 0 mm | - | 259 W/m² | - |
| 1777821219 | 26.11° C | 25% | 997.1 hPa | 0 mm | - | 274 W/m² | - |
| 1777820918 | 26.11° C | 26% | 997 hPa | 0 mm | - | 282 W/m² | - |
| 1777820617 | 26.67° C | 26% | 997.2 hPa | 0 mm | - | 296 W/m² | - |
| 1777820317 | 26.11° C | 28% | 997.2 hPa | 0 mm | - | 309 W/m² | - |
| 1777820016 | 26.11° C | 27% | 997.3 hPa | 0 mm | - | 322 W/m² | - |
| 1777819716 | 26.11° C | 27% | 997.3 hPa | 0 mm | - | 331 W/m² | - |
| 1777819415 | 26.11° C | 26% | 997.5 hPa | 0 mm | - | 337 W/m² | - |
| 1777819114 | 26.11° C | 27% | 997.6 hPa | 0 mm | - | 351 W/m² | - |
| 1777818814 | 26.11° C | 26% | 997.5 hPa | 0 mm | - | 361 W/m² | - |
| 1777818514 | 25.56° C | 26% | 997.4 hPa | 0 mm | - | 370 W/m² | - |
| 1777818213 | 26.11° C | 26% | 997.5 hPa | 0 mm | - | 382 W/m² | - |
| 1777817912 | 26.11° C | 26% | 997.6 hPa | 0 mm | - | 392 W/m² | - |
| 1777817611 | 26.11° C | 26% | 997.6 hPa | 0 mm | - | 397 W/m² | - |
| 1777817311 | 25.56° C | 26% | 997.7 hPa | 0 mm | - | 406 W/m² | - |
| 1777817011 | 26.11° C | 25% | 997.8 hPa | 0 mm | - | 419 W/m² | - |
| 1777816410 | 25.56° C | 26% | 998 hPa | 0 mm | - | 436 W/m² | - |
| 1777816110 | 25.56° C | 25% | 998 hPa | 0 mm | - | 448 W/m² | - |
| 1777815809 | 25.56° C | 26% | 998.1 hPa | 0 mm | - | 456 W/m² | - |
| 1777815508 | 26.11° C | 26% | 997.9 hPa | 0 mm | - | 464 W/m² | - |
| 1777815207 | 26.11° C | 25% | 998.2 hPa | 0 mm | - | 472 W/m² | - |
| 1777814907 | 26.11° C | 24% | 998.2 hPa | 0 mm | - | 482 W/m² | - |
* Rain latest hour (hover to see other rain measurements)
** Current wind speed in m/s (hover to see current wind gust speed)